Year,Month,Day,Hour,Minute,Value (Times are PST for barometer in hPa)
2010,04,02,00,00,1006.67
2010,04,02,00,01,1006.71
2010,04,02,00,02,1006.74
2010,04,02,00,03,1006.75
2010,04,02,00,04,1006.85
2010,04,02,00,05,1006.91
2010,04,02,00,06,1006.91
2010,04,02,00,07,1006.91
2010,04,02,00,08,1006.90
2010,04,02,00,09,1006.80
2010,04,02,00,10,1006.73
2010,04,02,00,11,1006.64
2010,04,02,00,12,1006.60
2010,04,02,00,13,1006.64
2010,04,02,00,14,1006.66
2010,04,02,00,15,1006.60
2010,04,02,00,16,1006.60
2010,04,02,00,17,1006.60
2010,04,02,00,18,1006.60
2010,04,02,00,19,1006.57
2010,04,02,00,20,1006.57
2010,04,02,00,21,1006.60
2010,04,02,00,22,1006.57
2010,04,02,00,23,1006.53
2010,04,02,00,24,1006.44
2010,04,02,00,25,1006.40
2010,04,02,00,26,1006.43
2010,04,02,00,27,1006.37
2010,04,02,00,28,1006.31
2010,04,02,00,29,1006.16
2010,04,02,00,30,1006.19
2010,04,02,00,31,1006.10
2010,04,02,00,32,1006.13
2010,04,02,00,33,1006.15
2010,04,02,00,34,1006.03
2010,04,02,00,35,1006.06
2010,04,02,00,36,1006.03
2010,04,02,00,37,1006.05
2010,04,02,00,38,1005.99
2010,04,02,00,39,1005.99
2010,04,02,00,40,1005.93
2010,04,02,00,41,1005.93
2010,04,02,00,42,1005.89
2010,04,02,00,43,1005.86
2010,04,02,00,44,1005.84
2010,04,02,00,45,1005.72
2010,04,02,00,46,1005.69
2010,04,02,00,47,1005.69
2010,04,02,00,48,1005.65
2010,04,02,00,49,1005.59
2010,04,02,00,50,1005.55
2010,04,02,00,51,1005.51
2010,04,02,00,52,1005.45
2010,04,02,00,53,1005.49
2010,04,02,00,54,1005.45
2010,04,02,00,55,1005.42
2010,04,02,00,56,1005.44
2010,04,02,00,57,1005.39
2010,04,02,00,58,1005.35
2010,04,02,00,59,1005.38
2010,04,02,01,00,1005.32
2010,04,02,01,01,1005.25
2010,04,02,01,02,1005.22
2010,04,02,01,03,1005.22
2010,04,02,01,04,1005.22
2010,04,02,01,05,1005.17
2010,04,02,01,06,1005.11
2010,04,02,01,07,1005.11
2010,04,02,01,08,1005.08
2010,04,02,01,09,1005.07
2010,04,02,01,10,1004.98
2010,04,02,01,11,1004.98
2010,04,02,01,12,1004.98
2010,04,02,01,13,1004.95
2010,04,02,01,14,1004.91
2010,04,02,01,15,1004.88
2010,04,02,01,16,1004.84
2010,04,02,01,17,1004.80
2010,04,02,01,18,1004.74
2010,04,02,01,19,1004.74
2010,04,02,01,20,1004.74
2010,04,02,01,21,1004.74
2010,04,02,01,22,1004.78
2010,04,02,01,23,1004.71
2010,04,02,01,24,1004.73
2010,04,02,01,25,1004.66
2010,04,02,01,26,1004.57
2010,04,02,01,27,1004.57
2010,04,02,01,28,1004.54
2010,04,02,01,29,1004.50
2010,04,02,01,30,1004.50
2010,04,02,01,31,1004.44
2010,04,02,01,32,1004.40
2010,04,02,01,33,1004.36
2010,04,02,01,34,1004.27
2010,04,02,01,35,1004.33
2010,04,02,01,36,1004.27
2010,04,02,01,37,1004.24
2010,04,02,01,38,1004.30
2010,04,02,01,39,1004.26
2010,04,02,01,40,1004.19
2010,04,02,01,41,1004.10
2010,04,02,01,42,1004.06
2010,04,02,01,43,1004.06
2010,04,02,01,44,1004.06
2010,04,02,01,45,1004.09
2010,04,02,01,46,1004.03
2010,04,02,01,47,1004.03
2010,04,02,01,48,1004.03
2010,04,02,01,49,1004.06
2010,04,02,01,50,1004.09
2010,04,02,01,51,1004.02
2010,04,02,01,52,1003.96
2010,04,02,01,53,1003.95
2010,04,02,01,54,1003.90
2010,04,02,01,55,1003.86
2010,04,02,01,56,1003.82
2010,04,02,01,57,1003.76
2010,04,02,01,58,1003.79
2010,04,02,01,59,1003.74
2010,04,02,02,00,1003.57
2010,04,02,02,01,1003.69
2010,04,02,02,02,1003.69
2010,04,02,02,03,1003.67
2010,04,02,02,04,1003.73
2010,04,02,02,05,1003.75
2010,04,02,02,06,1003.66
2010,04,02,02,07,1003.66
2010,04,02,02,08,1003.66
2010,04,02,02,09,1003.68
2010,04,02,02,10,1003.59
2010,04,02,02,11,1003.56
2010,04,02,02,12,1003.56
2010,04,02,02,13,1003.58
2010,04,02,02,14,1003.44
2010,04,02,02,15,1003.59
2010,04,02,02,16,1003.56
2010,04,02,02,17,1003.56
2010,04,02,02,18,1003.50
2010,04,02,02,19,1003.59
2010,04,02,02,20,1003.57
2010,04,02,02,21,1003.39
2010,04,02,02,22,1003.34
2010,04,02,02,23,1003.29
2010,04,02,02,24,1003.35
2010,04,02,02,25,1003.29
2010,04,02,02,26,1003.29
2010,04,02,02,27,1003.29
2010,04,02,02,28,1003.26
2010,04,02,02,29,1003.32
2010,04,02,02,30,1003.27
2010,04,02,02,31,1003.12
2010,04,02,02,32,1003.15
2010,04,02,02,33,1003.18
2010,04,02,02,34,1003.15
2010,04,02,02,35,1003.09
2010,04,02,02,36,1003.14
2010,04,02,02,37,1003.07
2010,04,02,02,38,1003.01
2010,04,02,02,39,1003.01
2010,04,02,02,40,1002.98
2010,04,02,02,41,1003.05
2010,04,02,02,42,1003.05
2010,04,02,02,43,1003.01
2010,04,02,02,44,1002.98
2010,04,02,02,45,1002.98
2010,04,02,02,46,1002.95
2010,04,02,02,47,1002.95
2010,04,02,02,48,1002.87
2010,04,02,02,49,1002.80
2010,04,02,02,50,1002.74
2010,04,02,02,51,1002.78
2010,04,02,02,52,1002.74
2010,04,02,02,53,1002.71
2010,04,02,02,54,1002.74
2010,04,02,02,55,1002.68
2010,04,02,02,56,1002.68
2010,04,02,02,57,1002.68
2010,04,02,02,58,1002.64
2010,04,02,02,59,1002.61
2010,04,02,03,00,1002.57
2010,04,02,03,01,1002.57
2010,04,02,03,02,1002.54
2010,04,02,03,03,1002.51
2010,04,02,03,04,1002.47
2010,04,02,03,05,1002.47
2010,04,02,03,06,1002.45
2010,04,02,03,07,1002.53
2010,04,02,03,08,1002.44
2010,04,02,03,09,1002.44
2010,04,02,03,10,1002.41
2010,04,02,03,11,1002.41
2010,04,02,03,12,1002.36
2010,04,02,03,13,1002.30
2010,04,02,03,14,1002.27
2010,04,02,03,15,1002.30
2010,04,02,03,16,1002.24
2010,04,02,03,17,1002.17
2010,04,02,03,18,1002.17
2010,04,02,03,19,1002.18
2010,04,02,03,20,1002.24
2010,04,02,03,21,1002.20
2010,04,02,03,22,1002.24
2010,04,02,03,23,1002.24
2010,04,02,03,24,1002.24
2010,04,02,03,25,1002.25
2010,04,02,03,26,1002.30
2010,04,02,03,27,1002.27
2010,04,02,03,28,1002.30
2010,04,02,03,29,1002.27
2010,04,02,03,30,1002.27
2010,04,02,03,31,1002.24
2010,04,02,03,32,1002.24
2010,04,02,03,33,1002.24
2010,04,02,03,34,1002.20
2010,04,02,03,35,1002.17
2010,04,02,03,36,1002.17
2010,04,02,03,37,1002.13
2010,04,02,03,38,1002.09
2010,04,02,03,39,1001.93
2010,04,02,03,40,1001.93
2010,04,02,03,41,1001.99
2010,04,02,03,42,1001.90
2010,04,02,03,43,1001.94
2010,04,02,03,44,1002.00
2010,04,02,03,45,1001.98
2010,04,02,03,46,1001.83
2010,04,02,03,47,1001.83
2010,04,02,03,48,1001.90
2010,04,02,03,49,1001.86
2010,04,02,03,50,1001.90
2010,04,02,03,51,1001.90
2010,04,02,03,52,1001.86
2010,04,02,03,53,1001.90
2010,04,02,03,54,1001.86
2010,04,02,03,55,1001.86
2010,04,02,03,56,1001.83
2010,04,02,03,57,1001.83
2010,04,02,03,58,1001.80
2010,04,02,03,59,1001.80
2010,04,02,04,00,1001.80
2010,04,02,04,01,1001.73
2010,04,02,04,02,1001.76
2010,04,02,04,03,1001.72
2010,04,02,04,04,1001.66
2010,04,02,04,05,1001.63
2010,04,02,04,06,1001.65
2010,04,02,04,07,1001.58
2010,04,02,04,08,1001.56
2010,04,02,04,09,1001.55
2010,04,02,04,10,1001.51
2010,04,02,04,11,1001.46
2010,04,02,04,12,1001.46
2010,04,02,04,13,1001.42
2010,04,02,04,14,1001.41
2010,04,02,04,15,1001.32
2010,04,02,04,16,1001.36
2010,04,02,04,17,1001.33
2010,04,02,04,18,1001.39
2010,04,02,04,19,1001.36
2010,04,02,04,20,1001.39
2010,04,02,04,21,1001.36
2010,04,02,04,22,1001.36
2010,04,02,04,23,1001.32
2010,04,02,04,24,1001.29
2010,04,02,04,25,1001.25
2010,04,02,04,26,1001.24
2010,04,02,04,27,1001.15
2010,04,02,04,28,1001.15
2010,04,02,04,29,1001.05
2010,04,02,04,30,1001.04
2010,04,02,04,31,1000.98
2010,04,02,04,32,1000.97
2010,04,02,04,33,1000.88
2010,04,02,04,34,1000.92
2010,04,02,04,35,1000.87
2010,04,02,04,36,1000.78
2010,04,02,04,37,1000.80
2010,04,02,04,38,1000.75
2010,04,02,04,39,1000.77
2010,04,02,04,40,1000.70
2010,04,02,04,41,1000.64
2010,04,02,04,42,1000.58
2010,04,02,04,43,1000.48
2010,04,02,04,44,1000.44
2010,04,02,04,45,1000.44
2010,04,02,04,46,1000.41
2010,04,02,04,47,1000.48
2010,04,02,04,48,1000.44
2010,04,02,04,49,1000.44
2010,04,02,04,50,1000.47
2010,04,02,04,51,1000.41
2010,04,02,04,52,1000.37
2010,04,02,04,53,1000.31
2010,04,02,04,54,1000.27
2010,04,02,04,55,1000.26
2010,04,02,04,56,1000.17
2010,04,02,04,57,1000.09
2010,04,02,04,58,1000.00
2010,04,02,04,59,999.93
2010,04,02,05,00,999.90
2010,04,02,05,01,999.87
2010,04,02,05,02,999.83
2010,04,02,05,03,999.75
2010,04,02,05,04,999.70
2010,04,02,05,05,999.70
2010,04,02,05,06,999.65
2010,04,02,05,07,999.59
2010,04,02,05,08,999.59
2010,04,02,05,09,999.56
2010,04,02,05,10,999.56
2010,04,02,05,11,999.53
2010,04,02,05,12,999.53
2010,04,02,05,13,999.48
2010,04,02,05,14,999.42
2010,04,02,05,15,999.31
2010,04,02,05,16,999.26
2010,04,02,05,17,999.22
2010,04,02,05,18,999.19
2010,04,02,05,19,999.22
2010,04,02,05,20,999.18
2010,04,02,05,21,999.11
2010,04,02,05,22,999.02
2010,04,02,05,23,999.02
2010,04,02,05,24,998.95
2010,04,02,05,25,998.95
2010,04,02,05,26,998.88
2010,04,02,05,27,998.85
2010,04,02,05,28,998.82
2010,04,02,05,29,998.78
2010,04,02,05,30,998.78
2010,04,02,05,31,998.78
2010,04,02,05,32,998.78
2010,04,02,05,33,998.71
2010,04,02,05,34,998.71
2010,04,02,05,35,998.68
2010,04,02,05,36,998.62
2010,04,02,05,37,998.68
2010,04,02,05,38,998.68
2010,04,02,05,39,998.68
2010,04,02,05,40,998.65
2010,04,02,05,41,998.64
2010,04,02,05,42,998.58
2010,04,02,05,43,998.58
2010,04,02,05,44,998.53
2010,04,02,05,45,998.44
2010,04,02,05,46,998.41
2010,04,02,05,47,998.34
2010,04,02,05,48,998.27
2010,04,02,05,49,998.24
2010,04,02,05,50,998.17
2010,04,02,05,51,998.14
2010,04,02,05,52,998.09
2010,04,02,05,53,998.04
2010,04,02,05,54,998.03
2010,04,02,05,55,997.94
2010,04,02,05,56,997.93
2010,04,02,05,57,997.86
2010,04,02,05,58,997.80
2010,04,02,05,59,997.78
2010,04,02,06,00,997.66
2010,04,02,06,01,997.62
2010,04,02,06,02,997.55
2010,04,02,06,03,997.45
2010,04,02,06,04,997.36
2010,04,02,06,05,997.36
2010,04,02,06,06,997.33
2010,04,02,06,07,997.28
2010,04,02,06,08,997.18
2010,04,02,06,09,997.12
2010,04,02,06,10,997.12
2010,04,02,06,11,997.11
2010,04,02,06,12,996.95
2010,04,02,06,13,996.95
2010,04,02,06,14,996.92
2010,04,02,06,15,996.89
2010,04,02,06,16,996.84
2010,04,02,06,17,996.71
2010,04,02,06,18,996.51
2010,04,02,06,19,996.58
2010,04,02,06,20,996.57
2010,04,02,06,21,996.50
2010,04,02,06,22,996.38
2010,04,02,06,23,996.34
2010,04,02,06,24,996.37
2010,04,02,06,25,996.28
2010,04,02,06,26,996.26
2010,04,02,06,27,996.11
2010,04,02,06,28,996.14
2010,04,02,06,29,996.11
2010,04,02,06,30,996.10
2010,04,02,06,31,996.04
2010,04,02,06,32,996.01
2010,04,02,06,33,996.00
2010,04,02,06,34,995.90
2010,04,02,06,35,995.97
2010,04,02,06,36,995.95
2010,04,02,06,37,996.04
2010,04,02,06,38,995.97
2010,04,02,06,39,995.90
2010,04,02,06,40,995.94
2010,04,02,06,41,995.90
2010,04,02,06,42,995.90
2010,04,02,06,43,995.84
2010,04,02,06,44,995.85
2010,04,02,06,45,995.73
2010,04,02,06,46,995.73
2010,04,02,06,47,995.73
2010,04,02,06,48,995.67
2010,04,02,06,49,995.66
2010,04,02,06,50,995.53
2010,04,02,06,51,995.56
2010,04,02,06,52,995.53
2010,04,02,06,53,995.50
2010,04,02,06,54,995.53
2010,04,02,06,55,995.45
2010,04,02,06,56,995.36
2010,04,02,06,57,995.36
2010,04,02,06,58,995.39
2010,04,02,06,59,995.16
2010,04,02,07,00,995.19
2010,04,02,07,01,995.16
2010,04,02,07,02,995.12
2010,04,02,07,03,995.05
2010,04,02,07,04,994.96
2010,04,02,07,05,994.95
2010,04,02,07,06,994.85
2010,04,02,07,07,994.78
2010,04,02,07,08,994.67
2010,04,02,07,09,994.57
2010,04,02,07,10,994.48
2010,04,02,07,11,994.47
2010,04,02,07,12,994.34
2010,04,02,07,13,994.22
2010,04,02,07,14,994.29
2010,04,02,07,15,994.03
2010,04,02,07,16,993.87
2010,04,02,07,17,993.86
2010,04,02,07,18,993.77
2010,04,02,07,19,993.77
2010,04,02,07,20,993.69
2010,04,02,07,21,993.58
2010,04,02,07,22,993.62
2010,04,02,07,23,993.36
2010,04,02,07,24,993.30
2010,04,02,07,25,993.26
2010,04,02,07,26,993.19
2010,04,02,07,27,993.19
2010,04,02,07,28,993.19
2010,04,02,07,29,993.16
2010,04,02,07,30,993.16
2010,04,02,07,31,993.13
2010,04,02,07,32,993.07
2010,04,02,07,33,993.15
2010,04,02,07,34,993.03
2010,04,02,07,35,992.97
2010,04,02,07,36,993.12
2010,04,02,07,37,992.98
2010,04,02,07,38,992.82
2010,04,02,07,39,992.75
2010,04,02,07,40,992.71
2010,04,02,07,41,992.63
2010,04,02,07,42,992.70
2010,04,02,07,43,992.35
2010,04,02,07,44,992.31
2010,04,02,07,45,992.34
2010,04,02,07,46,992.18
2010,04,02,07,47,992.17
2010,04,02,07,48,992.11
2010,04,02,07,49,992.13
2010,04,02,07,50,992.01
2010,04,02,07,51,991.98
2010,04,02,07,52,991.97
2010,04,02,07,53,991.87
2010,04,02,07,54,991.87
2010,04,02,07,55,991.83
2010,04,02,07,56,991.74
2010,04,02,07,57,991.67
2010,04,02,07,58,991.60
2010,04,02,07,59,991.64
2010,04,02,08,00,991.60
2010,04,02,08,01,991.57
2010,04,02,08,02,991.53
2010,04,02,08,03,991.50
2010,04,02,08,04,991.56
2010,04,02,08,05,991.40
2010,04,02,08,06,991.43
2010,04,02,08,07,991.39
2010,04,02,08,08,991.22
2010,04,02,08,09,991.13
2010,04,02,08,10,991.20
2010,04,02,08,11,991.23
2010,04,02,08,12,991.19
2010,04,02,08,13,991.06
2010,04,02,08,14,991.13
2010,04,02,08,15,991.06
2010,04,02,08,16,991.03
2010,04,02,08,17,990.96
2010,04,02,08,18,990.96
2010,04,02,08,19,990.89
2010,04,02,08,20,990.82
2010,04,02,08,21,990.76
2010,04,02,08,22,990.82
2010,04,02,08,23,990.82
2010,04,02,08,24,990.88
2010,04,02,08,25,990.70
2010,04,02,08,26,990.75
2010,04,02,08,27,990.62
2010,04,02,08,28,990.62
2010,04,02,08,29,990.62
2010,04,02,08,30,990.55
2010,04,02,08,31,990.48
2010,04,02,08,32,990.42
2010,04,02,08,33,990.44
2010,04,02,08,34,990.35
2010,04,02,08,35,990.28
2010,04,02,08,36,990.37
2010,04,02,08,37,990.25
2010,04,02,08,38,990.20
2010,04,02,08,39,990.34
2010,04,02,08,40,990.21
2010,04,02,08,41,990.17
2010,04,02,08,42,990.01
2010,04,02,08,43,989.98
2010,04,02,08,44,989.94
2010,04,02,08,45,989.87
2010,04,02,08,46,989.76
2010,04,02,08,47,989.61
2010,04,02,08,48,989.71
2010,04,02,08,49,989.64
2010,04,02,08,50,989.60
2010,04,02,08,51,989.60
2010,04,02,08,52,989.60
2010,04,02,08,53,989.54
2010,04,02,08,54,989.64
2010,04,02,08,55,989.53
2010,04,02,08,56,989.40
2010,04,02,08,57,989.44
2010,04,02,08,58,989.43
2010,04,02,08,59,989.33
2010,04,02,09,00,989.30
2010,04,02,09,01,989.30
2010,04,02,09,02,989.33
2010,04,02,09,03,989.23
2010,04,02,09,04,989.26
2010,04,02,09,05,989.14
2010,04,02,09,06,989.23
2010,04,02,09,07,989.16
2010,04,02,09,08,989.13
2010,04,02,09,09,989.13
2010,04,02,09,10,989.13
2010,04,02,09,11,989.10
2010,04,02,09,12,989.12
2010,04,02,09,13,989.03
2010,04,02,09,14,989.03
2010,04,02,09,15,989.03
2010,04,02,09,16,988.96
2010,04,02,09,17,988.97
2010,04,02,09,18,989.06
2010,04,02,09,19,989.10
2010,04,02,09,20,989.03
2010,04,02,09,21,989.06
2010,04,02,09,22,988.99
2010,04,02,09,23,988.85
2010,04,02,09,24,988.69
2010,04,02,09,25,988.66
2010,04,02,09,26,988.69
2010,04,02,09,27,988.62
2010,04,02,09,28,988.61
2010,04,02,09,29,988.49
2010,04,02,09,30,988.48
2010,04,02,09,31,988.39
2010,04,02,09,32,988.39
2010,04,02,09,33,988.32
2010,04,02,09,34,988.25
2010,04,02,09,35,988.22
2010,04,02,09,36,988.17
2010,04,02,09,37,988.05
2010,04,02,09,38,988.15
2010,04,02,09,39,988.05
2010,04,02,09,40,988.05
2010,04,02,09,41,987.98
2010,04,02,09,42,987.98
2010,04,02,09,43,988.01
2010,04,02,09,44,987.91
2010,04,02,09,45,987.84
2010,04,02,09,46,987.78
2010,04,02,09,47,987.73
2010,04,02,09,48,987.57
2010,04,02,09,49,987.54
2010,04,02,09,50,987.51
2010,04,02,09,51,987.51
2010,04,02,09,52,987.54
2010,04,02,09,53,987.47
2010,04,02,09,54,987.44
2010,04,02,09,55,987.51
2010,04,02,09,56,987.47
2010,04,02,09,57,987.51
2010,04,02,09,58,987.44
2010,04,02,09,59,987.44
2010,04,02,10,00,987.44
2010,04,02,10,01,987.37
2010,04,02,10,02,987.34
2010,04,02,10,03,987.34
2010,04,02,10,04,987.37
2010,04,02,10,05,987.37
2010,04,02,10,06,987.37
2010,04,02,10,07,987.37
2010,04,02,10,08,987.44
2010,04,02,10,09,987.40
2010,04,02,10,10,987.34
2010,04,02,10,11,987.30
2010,04,02,10,12,987.27
2010,04,02,10,13,987.20
2010,04,02,10,14,987.20
2010,04,02,10,15,987.23
2010,04,02,10,16,987.17
2010,04,02,10,17,987.12
2010,04,02,10,18,987.03
2010,04,02,10,19,987.00
2010,04,02,10,20,986.96
2010,04,02,10,21,987.03
2010,04,02,10,22,986.96
2010,04,02,10,23,986.93
2010,04,02,10,24,987.00
2010,04,02,10,25,986.93
2010,04,02,10,26,986.86
2010,04,02,10,27,986.79
2010,04,02,10,28,986.83
2010,04,02,10,29,986.86
2010,04,02,10,30,986.83
2010,04,02,10,31,986.79
2010,04,02,10,32,986.73
2010,04,02,10,33,986.89
2010,04,02,10,34,986.79
2010,04,02,10,35,986.73
2010,04,02,10,36,986.79
2010,04,02,10,37,986.79
2010,04,02,10,38,986.79
2010,04,02,10,39,986.73
2010,04,02,10,40,986.70
2010,04,02,10,41,986.83
2010,04,02,10,42,986.76
2010,04,02,10,43,986.70
2010,04,02,10,44,986.83
2010,04,02,10,45,986.83
2010,04,02,10,46,986.79
2010,04,02,10,47,986.93
2010,04,02,10,48,986.90
2010,04,02,10,49,986.80
2010,04,02,10,50,987.03
2010,04,02,10,51,987.00
2010,04,02,10,52,986.93
2010,04,02,10,53,986.93
2010,04,02,10,54,986.93
2010,04,02,10,55,986.96
2010,04,02,10,56,987.00
2010,04,02,10,57,986.96
2010,04,02,10,58,986.93
2010,04,02,10,59,986.90
2010,04,02,11,00,986.86
2010,04,02,11,01,986.77
2010,04,02,11,02,986.86
2010,04,02,11,03,986.79
2010,04,02,11,04,986.83
2010,04,02,11,05,986.86
2010,04,02,11,06,986.79
2010,04,02,11,07,986.79
2010,04,02,11,08,986.79
2010,04,02,11,09,986.76
2010,04,02,11,10,986.69
2010,04,02,11,11,986.76
2010,04,02,11,12,986.79
2010,04,02,11,13,986.79
2010,04,02,11,14,986.73
2010,04,02,11,15,986.70
2010,04,02,11,16,986.78
2010,04,02,11,17,986.68
2010,04,02,11,18,986.59
2010,04,02,11,19,986.66
2010,04,02,11,20,986.69
2010,04,02,11,21,986.73
2010,04,02,11,22,986.69
2010,04,02,11,23,986.66
2010,04,02,11,24,986.73
2010,04,02,11,25,986.59
2010,04,02,11,26,986.62
2010,04,02,11,27,986.63
2010,04,02,11,28,986.76
2010,04,02,11,29,986.76
2010,04,02,11,30,986.76
2010,04,02,11,31,986.66
2010,04,02,11,32,986.66
2010,04,02,11,33,986.59
2010,04,02,11,34,986.69
2010,04,02,11,35,986.72
2010,04,02,11,36,986.64
2010,04,02,11,37,986.89
2010,04,02,11,38,986.73
2010,04,02,11,39,986.70
2010,04,02,11,40,986.86
2010,04,02,11,41,986.82
2010,04,02,11,42,986.66
2010,04,02,11,43,986.69
2010,04,02,11,44,986.69
2010,04,02,11,45,986.73
2010,04,02,11,46,986.69
2010,04,02,11,47,986.69
2010,04,02,11,48,986.66
2010,04,02,11,49,986.62
2010,04,02,11,50,986.62
2010,04,02,11,51,986.62
2010,04,02,11,52,986.59
2010,04,02,11,53,986.59
2010,04,02,11,54,986.57
2010,04,02,11,55,986.66
2010,04,02,11,56,986.59
2010,04,02,11,57,986.51
2010,04,02,11,58,986.38
2010,04,02,11,59,986.25
2010,04,02,12,00,986.29
2010,04,02,12,01,986.42
2010,04,02,12,02,986.42
2010,04,02,12,03,986.42
2010,04,02,12,04,986.42
2010,04,02,12,05,986.38
2010,04,02,12,06,986.23
2010,04,02,12,07,986.39
2010,04,02,12,08,986.29
2010,04,02,12,09,986.34
2010,04,02,12,10,986.22
2010,04,02,12,11,986.25
2010,04,02,12,12,986.22
2010,04,02,12,13,986.12
2010,04,02,12,18,986.18
2010,04,02,12,20,986.22
2010,04,02,12,21,986.05
2010,04,02,12,22,986.12
2010,04,02,12,23,986.07
2010,04,02,12,24,985.85
2010,04,02,12,25,985.78
2010,04,02,12,26,985.81
2010,04,02,12,27,985.82
2010,04,02,12,28,986.02
2010,04,02,12,29,985.96
2010,04,02,12,30,986.05
2010,04,02,12,31,985.98
2010,04,02,12,32,986.03
2010,04,02,12,33,986.12
2010,04,02,12,34,986.12
2010,04,02,12,35,986.18
2010,04,02,12,36,986.22
2010,04,02,12,37,986.18
2010,04,02,12,38,986.12
2010,04,02,12,39,986.22
2010,04,02,12,40,986.15
2010,04,02,12,41,986.12
2010,04,02,12,42,986.18
2010,04,02,12,43,986.24
2010,04,02,12,44,986.08
2010,04,02,12,45,986.08
2010,04,02,12,46,986.02
2010,04,02,12,47,986.05
2010,04,02,12,48,986.08
2010,04,02,12,49,986.08
2010,04,02,12,50,986.05
2010,04,02,12,51,986.12
2010,04,02,12,52,986.17
2010,04,02,12,53,986.08
2010,04,02,12,54,986.12
2010,04,02,12,55,986.12
2010,04,02,12,56,986.15
2010,04,02,12,57,986.21
2010,04,02,12,58,986.06
2010,04,02,12,59,986.17
2010,04,02,13,00,986.08
2010,04,02,13,01,985.99
2010,04,02,13,02,986.12
2010,04,02,13,03,986.08
2010,04,02,13,04,986.15
2010,04,02,13,05,986.15
2010,04,02,13,06,986.15
2010,04,02,13,07,986.08
2010,04,02,13,08,986.15
2010,04,02,13,09,986.11
2010,04,02,13,10,986.03
2010,04,02,13,11,986.18
2010,04,02,13,12,986.12
2010,04,02,13,13,986.15
2010,04,02,13,14,986.12
2010,04,02,13,15,986.12
2010,04,02,13,16,986.05
2010,04,02,13,17,986.11
2010,04,02,13,18,985.96
2010,04,02,13,19,986.05
2010,04,02,13,20,986.15
2010,04,02,13,21,986.08
2010,04,02,13,22,985.98
2010,04,02,13,23,986.02
2010,04,02,13,24,985.98
2010,04,02,13,25,985.98
2010,04,02,13,26,986.22
2010,04,02,13,27,986.32
2010,04,02,13,28,986.05
2010,04,02,13,29,986.12
2010,04,02,13,30,986.18
2010,04,02,13,31,986.17
2010,04,02,13,32,986.05
2010,04,02,13,33,986.02
2010,04,02,13,34,986.04
2010,04,02,13,35,985.96
2010,04,02,13,36,986.12
2010,04,02,13,37,986.12
2010,04,02,13,38,986.08
2010,04,02,13,39,986.05
2010,04,02,13,40,986.11
2010,04,02,13,41,985.91
2010,04,02,13,42,985.99
2010,04,02,13,43,986.15
2010,04,02,13,44,986.17
2010,04,02,13,45,986.05
2010,04,02,13,46,986.12
2010,04,02,13,47,986.12
2010,04,02,13,48,986.22
2010,04,02,13,49,986.22
2010,04,02,13,50,986.18
2010,04,02,13,51,986.25
2010,04,02,13,52,986.17
2010,04,02,13,53,985.95
2010,04,02,13,54,985.88
2010,04,02,13,55,985.91
2010,04,02,13,56,985.85
2010,04,02,13,57,985.94
2010,04,02,13,58,985.81
2010,04,02,13,59,985.74
2010,04,02,14,00,985.81
2010,04,02,14,01,985.70
2010,04,02,14,02,985.52
2010,04,02,14,03,985.65
2010,04,02,14,04,985.78
2010,04,02,14,05,985.81
2010,04,02,14,06,985.74
2010,04,02,14,07,985.71
2010,04,02,14,08,985.78
2010,04,02,14,09,985.61
2010,04,02,14,10,985.71
2010,04,02,14,11,985.68
2010,04,02,14,12,985.68
2010,04,02,14,13,985.68
2010,04,02,14,14,985.72
2010,04,02,14,15,985.88
2010,04,02,14,16,985.81
2010,04,02,14,17,985.85
2010,04,02,14,18,985.78
2010,04,02,14,19,985.81
2010,04,02,14,20,985.81
2010,04,02,14,21,985.88
2010,04,02,14,22,985.85
2010,04,02,14,23,985.85
2010,04,02,14,24,985.85
2010,04,02,14,25,985.85
2010,04,02,14,26,985.91
2010,04,02,14,27,985.88
2010,04,02,14,28,985.82
2010,04,02,14,29,985.91
2010,04,02,14,30,985.81
2010,04,02,14,31,985.88
2010,04,02,14,32,985.94
2010,04,02,14,33,985.81
2010,04,02,14,34,985.88
2010,04,02,14,35,985.75
2010,04,02,14,36,985.91
2010,04,02,14,37,985.78
2010,04,02,14,38,985.81
2010,04,02,14,39,985.86
2010,04,02,14,40,986.02
2010,04,02,14,41,986.05
2010,04,02,14,42,985.91
2010,04,02,14,43,985.88
2010,04,02,14,44,985.95
2010,04,02,14,45,985.88
2010,04,02,14,46,985.95
2010,04,02,14,47,985.98
2010,04,02,14,48,986.06
2010,04,02,14,49,986.19
2010,04,02,14,50,986.32
2010,04,02,14,51,986.32
2010,04,02,14,52,986.38
2010,04,02,14,53,986.24
2010,04,02,14,54,986.16
2010,04,02,14,55,986.34
2010,04,02,14,56,986.22
2010,04,02,14,57,986.32
2010,04,02,14,58,986.29
2010,04,02,14,59,986.39
2010,04,02,15,00,986.39
2010,04,02,15,01,986.40
2010,04,02,15,02,986.49
2010,04,02,15,03,986.56
2010,04,02,15,04,986.56
2010,04,02,15,05,986.53
2010,04,02,15,06,986.70
2010,04,02,15,07,986.78
2010,04,02,15,08,986.62
2010,04,02,15,09,986.66
2010,04,02,15,10,986.74
2010,04,02,15,11,986.86
2010,04,02,15,12,986.97
2010,04,02,15,13,987.07
2010,04,02,15,14,987.20
2010,04,02,15,15,987.17
2010,04,02,15,16,987.10
2010,04,02,15,17,987.05
2010,04,02,15,18,986.95
2010,04,02,15,19,986.83
2010,04,02,15,20,986.90
2010,04,02,15,21,986.83
2010,04,02,15,22,986.83
2010,04,02,15,23,986.91
2010,04,02,15,24,987.03
2010,04,02,15,25,987.11
2010,04,02,15,26,986.69
2010,04,02,15,27,986.93
2010,04,02,15,28,987.04
2010,04,02,15,29,987.16
2010,04,02,15,30,987.04
2010,04,02,15,31,987.17
2010,04,02,15,32,987.20
2010,04,02,15,33,987.17
2010,04,02,15,34,987.17
2010,04,02,15,35,987.28
2010,04,02,15,36,987.44
2010,04,02,15,37,987.57
2010,04,02,15,38,987.57
2010,04,02,15,39,987.61
2010,04,02,15,40,987.67
2010,04,02,15,41,987.67
2010,04,02,15,42,987.67
2010,04,02,15,43,987.64
2010,04,02,15,44,987.64
2010,04,02,15,45,987.57
2010,04,02,15,46,987.57
2010,04,02,15,47,987.57
2010,04,02,15,48,987.57
2010,04,02,15,49,987.51
2010,04,02,15,50,987.57
2010,04,02,15,51,987.64
2010,04,02,15,52,987.62
2010,04,02,15,53,987.73
2010,04,02,15,54,987.61
2010,04,02,15,55,987.61
2010,04,02,15,56,987.61
2010,04,02,15,57,987.64
2010,04,02,15,58,987.57
2010,04,02,15,59,987.52
2010,04,02,16,00,987.64
2010,04,02,16,01,987.54
2010,04,02,16,02,987.54
2010,04,02,16,03,987.61
2010,04,02,16,04,987.51
2010,04,02,16,05,987.51
2010,04,02,16,06,987.47
2010,04,02,16,07,987.54
2010,04,02,16,08,987.61
2010,04,02,16,09,987.64
2010,04,02,16,10,987.61
2010,04,02,16,11,987.54
2010,04,02,16,12,987.53
2010,04,02,16,13,987.44
2010,04,02,16,14,987.43
2010,04,02,16,15,987.34
2010,04,02,16,16,987.13
2010,04,02,16,17,987.34
2010,04,02,16,18,987.27
2010,04,02,16,19,987.30
2010,04,02,16,20,987.34
2010,04,02,16,21,987.30
2010,04,02,16,22,987.26
2010,04,02,16,23,987.13
2010,04,02,16,24,987.18
2010,04,02,16,25,987.34
2010,04,02,16,26,987.18
2010,04,02,16,27,987.30
2010,04,02,16,28,987.29